Orangeburg, SC

11:29 PM EST on December 04, 2016 (GMT -0500)
Orangeburg Municipal

Weather History for KOGB - August, 2014

Change the Weather History Date:

Tuesday, August 26, 2014

  Actual Average Record
Temperature  
Mean Temperature 78 °F 79 °F  
Max Temperature 88 °F 89 °F 98 °F (1954)
Min Temperature 67 °F 70 °F 56 °F (1980)
Degree Days  
Heating Degree Days 0 0  
Month to date heating degree days 0 0  
Since 1 June heating degree days 0 1  
Since 1 July heating degree days 0 0  
Cooling Degree Days 13 14  
Month to date cooling degree days 400 404  
Year to date cooling degree days 1703 1626  
Since 1 June cooling degree days 1348 1323  
Growing Degree Days 28 (Base 50)    
Moisture  
Dew Point 62 °F    
Average Humidity 61    
Maximum Humidity 79    
Minimum Humidity 40    
Precipitation  
Precipitation 0.00 in 0.17 in 1.88 in (2007)
Month to date precipitation 3.90 4.49  
Year to date precipitation 35.02 32.52  
Sea Level Pressure  
Sea Level Pressure 30.06 in    
Wind  
Wind Speed 7 mph (NE)    
Max Wind Speed 16 mph    
Max Gust Speed 21 mph    
Visibility 10 miles    
Events      
T = Trace of Precipitation, MM = Missing Value Source: NWS Daily Summary

Daily Weather History Graph

Daily Weather History Graph

Search for Another Location

Airport or City:

Trip Planner

Search our weather history database for the weather conditions in past years. The results will help you decide how hot, cold, wet, or windy it might be!

Date:

Astronomy

Aug. 26, 2014 Rise Set
Actual Time 6:53 AM EDT 7:56 PM EDT
Civil Twilight 6:27 AM EDT 8:22 PM EDT
Nautical Twilight 5:57 AM EDT 8:52 PM EDT
Astronomical Twilight 5:25 AM EDT 9:23 PM EDT
Moon 7:47 AM EDT (8/26) 8:23 PM EDT (8/26)
Length of Visible Light 13h 54m
Length of Day
13h 02m
New Moon, 1% of the Moon is Illuminated
Aug 26
New Moon
Sep 2
First Quarter
Sep 8
Full
Sep 15
Last Quarter
Sep 24
New

Hourly Weather History & Observations

Time (EDT) Temp. Heat Index Dew Point Humidity Pressure Visibility Wind Dir Wind Speed Gust Speed Precip Events Conditions
12:53 AM 73.0 °F - 64.0 °F 73% 30.07 in 10.0 mi NE 5.8 mph - N/A   Overcast
1:53 AM 73.0 °F - 64.9 °F 76% 30.07 in 10.0 mi NE 5.8 mph - N/A   Overcast
2:53 AM 73.0 °F - 64.0 °F 73% 30.07 in 10.0 mi NNE 6.9 mph - N/A   Overcast
3:53 AM 73.0 °F - 64.0 °F 73% 30.05 in 10.0 mi NE 9.2 mph - N/A   Overcast
5:53 AM 70.0 °F - 63.0 °F 78% 30.06 in 10.0 mi ENE 5.8 mph - N/A   Clear
6:53 AM 69.1 °F - 63.0 °F 81% 30.07 in 10.0 mi NE 6.9 mph - N/A   Clear
8:53 AM 73.0 °F - 61.0 °F 66% 30.09 in 10.0 mi NE 11.5 mph - N/A   Clear
9:53 AM 75.9 °F - 61.0 °F 60% 30.09 in 10.0 mi NE 6.9 mph - N/A   Clear
11:53 AM 81.0 °F 81.7 °F 61.0 °F 50% 30.11 in 10.0 mi ENE 9.2 mph - N/A   Clear
12:53 PM 82.9 °F 83.3 °F 61.0 °F 47% 30.09 in 10.0 mi NE 13.8 mph 19.6 mph N/A   Clear
1:53 PM 84.9 °F 85.0 °F 61.0 °F 44% 30.07 in 10.0 mi NNE 12.7 mph - N/A   Clear
2:53 PM 84.9 °F 85.4 °F 62.1 °F 46% 30.05 in 10.0 mi East 6.9 mph - N/A   Clear
3:53 PM 87.1 °F 87.0 °F 61.0 °F 41% 30.03 in 10.0 mi Variable 6.9 mph - N/A   Clear
4:53 PM 87.1 °F 87.0 °F 61.0 °F 41% 30.02 in 10.0 mi ENE 8.1 mph - N/A   Clear
5:53 PM 87.1 °F 87.0 °F 61.0 °F 41% 30.02 in 10.0 mi NNE 11.5 mph - N/A   Partly Cloudy
6:53 PM 84.9 °F 85.4 °F 62.1 °F 46% 30.02 in 10.0 mi ENE 6.9 mph - N/A   Clear
7:53 PM 81.0 °F 82.2 °F 63.0 °F 54% 30.03 in 10.0 mi ENE 4.6 mph - N/A   Partly Cloudy
8:53 PM 77.0 °F - 64.0 °F 64% 30.04 in 10.0 mi NE 3.5 mph - N/A   Clear
9:53 PM 75.0 °F - 64.0 °F 69% 30.05 in 10.0 mi NE 4.6 mph - N/A   Clear
10:53 PM 73.0 °F - 63.0 °F 71% 30.05 in 10.0 mi NE 4.6 mph - N/A   Clear
11:53 PM 69.1 °F - 63.0 °F 81% 30.05 in 10.0 mi Calm Calm - N/A   Clear